CALSPHERE 1

导读

CALSPHERE 1是美国于1964年10月6日发射的一颗试验卫星,作为早期航天探索的产物,它承载着美国人验证航天技术、开展空间环境探测的使命。在人类航天事业起步阶段,这颗卫星为美国积累了宝贵的空间飞行经验,推动了后续卫星技术的发展,是冷战时期美国太空探索进程中一颗具有历史意义的早期航天器。

基本信息
目录编号:
900
目录名称:
CALSPHERE 1
国际标识:
1964-063C
轨道中心:
EARTH
卫星名称:
CALSPHERE 1
卫星全名:
--
卫星状态:
在轨 (已飞行22533 天)
发射日期:
1964-10-06 UTC
国别 :
美国 (US)
星等 :
--
轨道信息
数据来源 国际轨道数据 AOE轨道数据
星历时间 2026-06-16T11:44:09+0800
12小时前
查看轨道信息
2026-06-14T02:00:00+0800
2天前
查看轨道信息
半长轴 7354.029km 7354.04km
偏心率 0.0024074 0.0024353
轨道倾角 90.224° 90.224°
近地点辐角 300.707° 308.302°
升交点赤经 71.747° 71.690°
平近点角 155.087° 112.728°
近地点 958.187km 957.993km
远地点 993.597km 993.813km
周期 104.604分钟 104.604分钟
每日圈数 13.766224 13.766192
详细信息
使用方式:
暂无
2D轨道图
3D轨道图
轨道高度分析图
轨道倾角分析图
轨道综合分析图
查看轨道综合分析图